{"data":{"norad_id":55786,"epoch":"2026-09-20T22:00:03.000096Z","epoch_age_seconds":67017,"freshness":"FRESH","line1":"1 55786U 23028AX  26263.91670139  .00069687  00000+0  35068-2 0  9990","line2":"2 55786  69.9999  71.5928 0003739 284.1929 134.1554 15.16831192  5761","mean_motion":15.16831192,"eccentricity":0.0003739,"inclination_deg":69.9999,"raan_deg":71.5928,"arg_perigee_deg":284.1929,"mean_anomaly_deg":134.1554,"bstar":0.0035068,"rev_number":576,"period_min":94.934756589578,"perigee_km":512.84730871699,"apogee_km":518.00231423962,"semimajor_km":6893.5618114783,"source":"CELESTRAK","updated_at":"2026-09-21T09:00:33.320498Z"}}